FENGYUN 1C DEB, 38801

Orbit data source: Space-Track

FENGYUN 1C DEB, 38801 is space debris in SSO originally from a launch on Mon, 10 May 1999 UTC launched from the Taiyaun Space Center, China (TSC). Fengyun 1C debris stems from the Chinese weather satellite Fengyun-1C, which was intentionally destroyed by a Chinese anti-satellite missile in 2007. This event dramatically increased the amount of space debris, with thousands of trackable fragments posing hazards to satellites and human spaceflight. The Fengyun 1C debris cloud has become a focal point in discussions about space sustainability and the need for international regulations to prevent the creation of new debris.

Loading next visibility...
Identifier
38801, 1999-025EUR
Orbit
SSO
Country
Flag of CNCN / PRC
Related business
Manufacturer
Unknown
Mission
Spacecraft
Bus & Motor
Unknown
Mass
Unknown
Launch date (UTC)
1999-05-10 (27 years ago)
Launch vehicle
Unknown
Launch site
Taiyaun Space Center, China (TSC)
Object type
Payload
Rocket body
Debris
Shape & HBR
Unknown shape, 0.1 m
Radar Cross Section
Small (<0.1 m²)

Expand to show TLE details & history
Last TLE update: 4 days ago

TLE from 4 days ago
0 FENGYUN 1C DEB
1 38801U 99025EUR 25348.98495551  .00001732  00000-0  40763-3 0  9999
2 38801  98.3742  39.5088 0346834 345.3815 131.5103 14.24823340643924
Epoch: 2025-12-14T23:38Z
TLE epoch observation values (Epoch: 2025-12-14T23:38:20.156Z)
Latitude
59.26074°
Longitude
155.29117°
Altitude
989.039 km
Speed
7.275 km/s
True Right ascension
15h 35m 03s
True Declination
59° 06' 51"
Sunlit
Object was in daylight at epoch
Visualization orbit readout
Latitude
Unknown
Longitude
Unknown
Altitude
Unknown
Speed
Unknown
Apparent Right ascension
Unknown
Apparent Declination
Unknown
Sunlit
N/A
Visualization observer readout
Local Sidereal Time
05:04:03
Azimuth
Unknown
Elevation
Unknown
Doppler factor
Unknown
Orbital elements
Apogee altitude
1,055.396 km
Perigee altitude
557.04 km
Semi-major axis
7,184.355 km
Eccentricity
0.03468
Inclination
98.3742°
RAAN
39.5088°
Arg. of periapsis
345.3815°
True anomaly
134.40205°
Mean anomaly
131.5103°
Eccentric anomaly
132.96449°
Mean motion
3.5642 °/min
Orbital period
101 mins
BSTAR
0.00040763
Loading maneuver chart data...
Computing Atmospheric mass density...

Documentation

Showing up to 5 results
|